Location: ??
(35.5052°N, 139.7262°E)
Time: 11:13:05
(UTC+00:00)

Envisat - Pass Details

Date: 04 October 2021
Orbit: 764 x 766 km, 98.2° (Epoch: 20 October)

Event Time Altitude Azimuth Distance (km) Brightness Sun altitude
Rises 18:27:51 0° 36° (NE) 3,233 7.0 -27.3°
Reaches altitude 10° 18:31:30 10° 64° (ENE) 2,301 6.4 -26.6°
Maximum altitude 18:33:51 13° 92° (E) 2,082 6.1 -26.1°
Drops below altitude 10° 18:36:11 10° 120° (ESE) 2,294 6.0 -25.6°
Sets 18:39:47 0° 146° (SSE) 3,214 6.5 -24.9°
